Погода в Глушково

Россия / Вологодская область     60°01′44″N   37°55′20″E
темп.,
°C
ветер,
м/с
пор.,
м/с
влажн.,
%
обл.,
%
осадки,
мм/ч
давл.,
гПа
погр.,
м
18 января, вт
вт1800:00−7ссз5108975 0.1 988548
03:00−11зсз4119581 0.1 993304
06:00−8сз5139491 0.0 995498
09:00−7сз61389100 0.1 999637
12:00−8сз61389100 0.0 1003669
15:00−8сз51290100 0.1 1007599
18:00−10сз51391100 0.0 1010534
21:00−11зсз51393100 0.1 1012470
19 января, ср
ср1900:00−14зсз3109661 0.0 1013206
03:00−16з269776 0.0 101485
06:00−18юз249784 0.0 101358
09:00−12ююз31192100 0.0 1011199
12:00−8ююз41294100 0.1 1008412
15:00−6ююз4119596 0.7 1006455
18:00−5ююз41294100 0.4 1004443
21:00−4ююз51294100 0.5 1002431
20 января, чт
чт2000:00
03:00−2ююз51394100 0.1 999785
06:00−1ююз51293100 0.1 998698
09:00
12:00−1ю51294100 0.0 998550
15:00−2ю51293100 0.0 998553
18:00−3ю51293100 0.0 998642
21:00−3ю51393100 0.1 999638
21 января, пт
пт2100:00−4ю51295100 0.4 1000605
03:00−5ю51293100 0.8 1001501
06:00−7ююв41193100 0.1 1003466
09:00−7ююв41193100 0.3 1005456
12:00−7ююв41093100 0.1 1007494
15:00−7юв4994100 0.2 1008529
18:00−7юв4993100 0.1 1010464
21:00−8вюв399497 0.2 1011414
22 января, сб
сб2200:00−9в3895100 0.0 1013238
03:00−9в3795100 0.2 1014273
06:00−10в389693 0.1 1015215
09:00−11всв269780 0.1 1016156
12:00−9в2595100 0.2 1017195
15:00−7в1496100 0.4 1019235
18:00−10в239875 0.2 102051
21:00−14юв2210094 0.2 102326